Location: Braunegg
(48.3500°N, 15.2167°E)
Time: 03:43:24
(UTC+00:00)

Daily predictions for brighter satellites

Satellite Brightness Start Highest point End
(mag) Time Altitude Azimuth Time Altitude Azimuth Time Altitude Azimuth
Cosmos 1825 2.1 00:13:02 36° SSW 00:14:26 72° W 00:18:13 10° N
Cosmos 1076 Rocket 4.4 00:12:59 21° SSE 00:15:23 41° E 00:19:23 10° NNE
Cosmos 540 Rocket 3.5 00:15:11 27° S 00:17:57 71° ESE 00:23:03 10° NNE
DELTA 2 R/B (1) 4.4 00:16:57 27° SSW 00:18:15 29° SSE 00:23:00 10° ESE
Cosmos 1408 3.7 00:19:18 25° WSW 00:20:39 34° WNW 00:24:04 10° N
NOSS 2-2 (E) 4.2 00:20:41 26° SSE 00:21:41 30° ESE 00:24:58 10° ENE
Cosmos 1437 3.6 00:20:25 10° N 00:23:03 36° ENE 00:24:28 21° SE
Cosmos 1242 Rocket 2.6 00:20:39 10° N 00:24:16 78° ENE 00:26:09 27° SSE
Cosmos 405 Rocket 3.1 00:23:36 30° SW 00:25:01 46° WNW 00:28:37 10° N
SL-16 R/B 3.7 00:20:03 10° WSW 00:25:02 30° NW 00:30:02 10° NNE
Cosmos 841 Rocket 3.5 00:23:03 26° S 00:25:59 71° ESE 00:31:08 10° NNE
Cosmos 2221 2.4 00:21:51 10° NNW 00:26:09 73° W 00:28:23 27° S
Cosmos 2058 2.9 00:24:22 31° SSW 00:26:15 73° W 00:30:22 10° N
Cosmos 1656 Rocket 3.7 00:20:40 10° NNW 00:26:18 62° WSW 00:30:16 19° S
USA 229 DEB 3.8 00:22:35 17° SW 00:27:46 69° NW 00:34:42 10° NE
USA 229 3.8 00:22:43 17° SW 00:27:52 69° NW 00:34:48 10° NE
X-37B 0.8 00:28:47 42° SSW 00:29:13 45° S 00:32:17 10° ESE
Cosmos 1898 Rocket 4.1 00:28:49 10° NW 00:33:40 39° WSW 00:36:10 24° SSW
Cosmos 1937 Rocket 3.7 00:28:52 10° NNW 00:34:04 53° WSW 00:37:19 22° S
Nadezhda 4 Rocket 4.0 00:30:48 23° SSW 00:34:51 77° W 00:41:00 10° N
NOSS 2-2 (C) 4.1 00:34:05 24° SSE 00:35:19 32° ESE 00:38:37 10° ENE
Cosmos 2369 Rocket 3.0 00:31:05 10° NW 00:36:12 35° WSW 00:38:58 22° SSW
Meteor 2-15 4.5 00:30:12 10° N 00:36:23 87° ENE 00:41:34 15° S
Cosmos 2026 Rocket 4.5 00:31:27 15° SSE 00:36:31 57° E 00:42:43 10° NNE
NOSS 3-1 (C) 4.3 00:31:26 10° WSW 00:36:45 44° NW 00:43:04 10° NE
Aureole 3 Rocket 3.2 00:34:00 10° N 00:37:52 82° E 00:41:59 16° SSE
USA 307 3.6 00:38:07 26° S 00:39:52 39° SE 00:43:50 10° ENE
FALCON 9 DEB 4.1 00:38:01 10° WNW 00:41:03 44° NNE 00:44:04 10° E
CREW DRAGON DEMO-1 DEB 3.0 00:40:05 24° W 00:41:17 51° NNW 00:43:41 10° ENE
ARGOS Delta rocket 4.2 00:37:28 10° NNE 00:43:00 88° ESE 00:46:49 21° SSW
USA 215 4.3 00:37:43 10° ENE 00:43:53 45° N 00:50:01 10° W
NOSS 3-1 (A) 3.9 00:42:41 14° WSW 00:47:29 55° NW 00:53:56 10° NE
ATLAS 5 CENTAUR R/B 1.9 00:48:04 24° S 00:50:10 47° ESE 00:54:24 10° NE
CZ-4 R/B 4.5 00:46:09 10° N 00:50:34 43° WNW 00:53:33 19° SW
Helios 1B rocket 2.6 00:47:21 10° NNE 00:51:28 68° ESE 00:54:08 21° S
ADEOS Rocket 3.6 00:47:57 10° SSE 00:55:10 72° ENE 01:01:42 10° N
Cosmos 1633 2.4 00:53:22 25° SSW 00:55:15 85° W 00:58:49 10° N
Cosmos 1814 Rocket 4.0 00:51:52 21° SSW 00:55:25 85° ESE 01:00:37 10° NNE
USA 308 3.2 00:53:26 24° SSW 00:55:44 49° SE 00:59:51 10° ENE
UNK 3.7 00:54:25 17° S 00:57:54 68° WSW 01:02:32 10° NNW
FALCON 9 DEB 3.3 00:55:07 10° WNW 00:58:12 62° NNE 01:01:14 10° ESE
CZ-3B R/B 3.3 00:50:57 10° WNW 00:58:40 47° N 01:01:29 10° E
Helios 1A 4.3 01:00:06 19° SW 01:01:44 24° W 01:05:09 10° NW
Cosmos 1606 3.2 00:58:30 10° NNW 01:02:09 43° W 01:04:12 22° SSW
Cosmos 2150 Rocket 4.3 00:58:28 10° NNW 01:03:40 71° ENE 01:08:54 10° SSE
FALCON 9 DEB 3.5 01:01:53 10° WNW 01:04:58 58° NNE 01:08:03 10° E
SL-16 R/B 2.6 00:59:52 14° S 01:05:13 60° WSW 01:11:21 10° NNW
Cosmos 1570 Rocket 4.0 01:01:44 19° SSW 01:05:30 81° WNW 01:10:46 10° NNE
Cosmos 1933 3.5 01:03:35 10° N 01:07:42 78° E 01:11:43 10° SSE
FALCON 9 DEB 3.2 01:05:21 10° WNW 01:08:27 68° NNE 01:11:32 10° ESE
Cosmos 372 Rocket 4.4 01:04:00 10° NNW 01:09:00 46° WSW 01:13:10 14° S
Cosmos 1125 Rocket 3.9 01:06:31 10° NNW 01:11:47 69° ENE 01:17:02 10° SSE
USA 290 2.2 01:11:15 23° SSW 01:13:06 72° WNW 01:16:19 10° NNE
USA 305 2.9 01:10:32 19° SW 01:13:32 69° SSE 01:17:47 10° ENE
DELTA 2 DEB (DPAF) 4.5 01:09:26 10° SSE 01:13:51 68° ENE 01:18:16 10° N
Meteor 1-28 Rocket 3.7 01:11:44 10° SSE 01:15:27 62° ENE 01:19:15 10° N
Lacrosse 4 Rocket 1.4 01:11:34 10° NW 01:15:35 54° WSW 01:19:31 10° SSE
CZ-4C R/B 4.0 01:12:21 10° SSE 01:15:49 19° ESE 01:19:40 10° ENE
Cosmos 1092 Rocket 4.1 01:11:05 17° SSW 01:15:55 63° WNW 01:22:03 10° N
Cosmos 1151 Rocket 3.8 01:12:52 10° N 01:17:03 51° ENE 01:21:11 10° SSE
Cosmos 2098 Rocket 4.3 01:15:08 16° SW 01:18:49 34° WNW 01:22:50 10° N
CENTAUR R/B 4.2 01:12:18 10° NW 01:19:53 50° NE 01:28:21 10° ESE
ARIANE 5 R/B 4.4 01:15:57 10° NE 01:19:55 23° E 01:23:52 10° SE
Resurs 1-4 Rocket 2.5 01:14:57 10° N 01:20:08 54° WNW 01:24:23 15° SW
BREEZE-M R/B 3.0 01:18:12 17° SW 01:20:42 54° SSE 01:26:35 10° ENE
Cosmos 2208 Rocket 4.2 01:16:33 17° SSW 01:20:51 76° WNW 01:26:21 10° NNE
NOSS 5 (C) 4.3 01:18:47 10° NW 01:21:51 66° SW 01:25:33 10° SSE
IRIDIUM 103 4.5 01:16:38 10° N 01:21:54 77° E 01:27:06 10° S
Meteor 1-29 2.9 01:20:50 10° NNE 01:24:17 84° ESE 01:26:57 16° SSW
OE (NEXTSAT) 4.3 01:22:36 10° W 01:26:00 59° S 01:29:24 10° E
Cosmos 1766 Rocket 4.3 01:22:19 10° S 01:26:38 52° E 01:31:00 10° NNE
SL-4 R/B 2.3 01:23:52 10° WNW 01:27:30 58° NNE 01:30:57 10° E
MINOTAUR 4 R/B 4.2 01:26:32 14° S 01:29:26 51° W 01:32:55 10° NNW
Landsat 4 3.7 01:26:18 10° NNE 01:30:07 87° ESE 01:33:22 13° SSW
NPP 4.0 01:26:02 10° N 01:31:19 55° WNW 01:35:57 13° SW
ADEOS II 2.1 01:26:34 10° NNE 01:31:52 86° WNW 01:36:49 12° SSW
NOSS 2-2 (D) 3.2 01:30:21 16° SW 01:33:01 68° NW 01:36:50 10° NE
Cosmos 921 Rocket 4.1 01:32:38 13° WSW 01:35:53 31° WNW 01:39:39 10° N
USA 306 2.9 01:32:05 13° WSW 01:35:56 90° NNE 01:40:12 10° ENE
Lacrosse 5 rocket 2.2 01:32:48 10° NW 01:36:17 46° NNE 01:39:51 10° ESE
Meteor 2-3 Rocket 3.7 01:31:29 12° SSW 01:36:45 81° WNW 01:42:22 10° N
Okean 3 Rocket 3.9 01:32:56 10° S 01:37:15 64° E 01:41:37 10° NNE
FALCON 9 DEB 4.0 01:34:46 10° W 01:37:44 28° SW 01:40:40 10° SSE
CZ-2D R/B 2.9 01:33:56 10° N 01:38:46 40° WNW 01:43:15 12° SW
Cosmos 1943 4.5 01:33:50 10° WSW 01:38:47 31° NW 01:43:48 10° NNE
Cosmos 1655 Rocket 4.5 01:33:41 10° S 01:39:47 62° E 01:45:57 10° NNE
IRIDIUM 106 4.3 01:34:58 10° N 01:40:11 76° W 01:45:24 10° S
Alouette 2 Rocket 3.2 01:37:10 10° NNW 01:40:44 88° ENE 01:44:51 10° SSE
ASTEX 1 3.6 01:40:33 10° SSE 01:45:29 76° E 01:50:25 10° N
IDEFIX/ARIANE 42P 2.8 01:41:02 10° NNE 01:46:17 72° ESE 01:51:30 10° S
Cosmos 2151 3.8 01:44:56 13° SW 01:48:23 37° WNW 01:52:19 10° N
EXPRESS MD2 4.2 01:43:55 10° WSW 01:52:31 90° S 01:56:37 10° ENE
Cosmos 2315 Rocket 4.5 01:56:12 10° N 02:02:23 66° ENE 02:08:33 10° SSE
DELTA 2 R/B (1) 4.3 01:59:02 10° WSW 02:03:55 32° S 02:08:49 10° SE
Cosmos 1656 3.9 01:58:41 10° NNW 02:04:27 82° ENE 02:10:09 10° SSE
X-37B 1.7 02:02:48 10° WSW 02:05:31 26° SSW 02:08:13 10° SE
CBERS-1 4.1 02:00:25 10° N 02:05:33 71° WNW 02:10:40 10° SSW
IRS-1D 3.8 02:00:42 10° N 02:05:46 57° WNW 02:10:41 10° SSW
BREEZE-M DEB (TANK) 1.3 02:05:18 10° W 02:07:31 61° SSW 02:10:24 10° ESE
IRS-1C 4.3 02:04:33 10° NNE 02:09:56 77° ESE 02:15:16 10° S
Cosmos 1812 2.7 02:06:11 10° NNW 02:10:02 77° W 02:13:51 10° S
Cosmos 1553 Rocket 4.4 02:04:11 10° NNW 02:10:08 45° W 02:15:57 10° SSW
Cosmos 2292 Rocket 4.1 02:10:05 10° SW 02:12:35 24° WNW 02:15:07 10° NNW
SL-08 R/B 3.5 02:08:20 10° SSE 02:13:00 81° ENE 02:17:47 10° NNW
CZ-2C R/B 3.9 02:09:49 10° NNE 02:14:22 34° E 02:18:44 10° SSE
CREW DRAGON DEMO-1 DEB 3.9 02:12:55 10° WNW 02:15:13 35° N 02:17:32 10° ENE
Cosmos 1697 Rocket 3.6 02:10:18 10° NNW 02:15:54 57° ENE 02:21:27 10° SE
S3M 4.1 02:10:17 10° NNW 02:16:18 58° W 02:22:21 10° S
Cosmos 1782 3.7 02:13:14 10° NNW 02:16:49 31° W 02:20:22 10° SSW
FALCON 9 DEB 3.1 02:13:47 10° WNW 02:16:49 46° SSW 02:19:48 10° SE
USA 281 3.3 02:10:55 10° S 02:17:22 58° WSW 02:23:52 10° NNW
MSX 3.9 02:12:50 10° NNE 02:18:39 86° WNW 02:24:24 10° SSW
Cosmos 1271 Rocket 3.1 02:15:19 10° NNW 02:18:52 41° W 02:22:25 10° SSW
USA 307 3.4 02:15:32 10° WSW 02:19:45 59° NNW 02:23:58 10° ENE
